Location: Unspecified
(49.9820°N, 20.4363°E)
Time: 09:35:53
(UTC+02:00)

ISS - Pass Details

Date: 12 July 2018
Orbit: 402 x 408 km, 51.6° (Epoch: 23 July)

Event Time Altitude Azimuth Distance (km) Brightness Sun altitude
Exits shadow 02:48:07 17° 250° (WSW) 1,104 -2.1 -12.9°
Maximum altitude 02:50:31 85° 165° (SSE) 415 -3.9 -12.7°
Drops below altitude 10° 02:53:50 10° 74° (ENE) 1,475 -0.3 -12.5°
Sets 02:55:55 0° 74° (ENE) 2,339 0.8 -12.3°
